Location: Newark
(34.6283°N, 36.0776°E)
Time: 05:22:09
(UTC+00:00)

Tiros 1 despin weight - Pass Details

Date: 24 September 2019
Orbit: 594 x 643 km, 48.2° (Epoch: 16 October)

Event Time Altitude Azimuth Distance (km) Brightness Sun altitude
Rises 11:49:41 0° 308° (NW) 2,872 ? 41.7°
Reaches altitude 10° 11:52:55 10° 332° (NNW) 1,956 ? 41.2°
Maximum altitude 11:55:31 15° 8° (N) 1,640 ? 40.8°
Drops below altitude 10° 11:58:07 10° 44° (NE) 1,939 ? 40.4°
Sets 12:01:18 0° 68° (ENE) 2,833 ? 39.8°
